ISS (ZARYA) 1 25544U 98067A 26169.15704105 .00009674 00000+0 18166-3 0 9997 2 25544 51.6334 295.2921 0004743 200.3344 159.7456 15.49293017571908 POISK 1 36086U 09060A 26169.15704105 .00009674 00000+0 18166-3 0 9995 2 36086 51.6334 295.2921 0004743 200.3344 159.7456 15.49293017571091 CSS (TIANHE) 1 48274U 21035A 26169.19275359 .00019911 00000+0 23482-3 0 9993 2 48274 41.4698 315.8819 0007397 85.5010 274.6674 15.60850984293320 ISS (NAUKA) 1 49044U 21066A 26169.15704105 .00009674 00000+0 18166-3 0 9993 2 49044 51.6334 295.2921 0004743 200.3344 159.7456 15.49293017571145 FREGAT DEB 1 49271U 11037PF 26151.14915702 .00018955 00000+0 30994-1 0 9992 2 49271 51.6227 53.0895 0914379 245.3590 104.9405 12.41880577222933 CSS (WENTIAN) 1 53239U 22085A 26169.19275359 .00019911 00000+0 23482-3 0 9996 2 53239 41.4698 315.8819 0007397 85.5010 274.6674 15.60850984288231 CSS (MENGTIAN) 1 54216U 22143A 26169.19275359 .00019911 00000+0 23482-3 0 9997 2 54216 41.4698 315.8819 0007397 85.5010 274.6674 15.60850984293918 HRC MONOBLOCK CAMERA 1 66052U 98067XR 26168.51893428 .00065438 00000+0 44952-3 0 9994 2 66052 51.6246 277.4696 0001644 299.3044 60.7791 15.74052121 38056 SZ-21 MODULE 1 66515U 25246C 26168.53256850 .00038762 00000+0 23828-3 0 9990 2 66515 41.4742 305.1743 0006303 350.6233 9.4493 15.76430582 33796 SOYUZ-MS 28 1 66664U 25275A 26169.15704105 .00009674 00000+0 18166-3 0 9996 2 66664 51.6334 295.2921 0004743 200.3344 159.7456 15.49293017571243 DUPLEX 1 66906U 98067XS 26168.50000604 .00030599 00000+0 34019-3 0 9990 2 66906 51.6285 287.8925 0003240 208.6085 151.4731 15.62606456 30708 ISS OBJECT XY 1 66912U 98067XY 26168.53840508 .00464559 10291-3 93027-3 0 9993 2 66912 51.6174 272.2153 0011402 325.9089 34.1186 15.99065949 30908 KNACKSAT-2 1 67683U 98067XZ 26168.60673955 .00040994 00000+0 49993-3 0 9996 2 67683 51.6314 292.3670 0009088 217.1010 142.9356 15.60014370 20344 CORAL 1 67684U 98067YA 26168.45036060 .00178457 00000+0 10673-2 0 9998 2 67684 51.6237 286.7742 0008645 258.9874 101.0154 15.76735945 20409 GXIBA-1 1 67685U 98067YB 26168.60857589 .00048579 00000+0 55506-3 0 9999 2 67685 51.6287 291.6248 0010212 215.4722 144.5594 15.61624235 20351 UITMSAT-2 1 67686U 98067YC 26169.32189269 .00066059 00000+0 65910-3 0 9996 2 67686 51.6271 286.6357 0005378 214.1379 145.9271 15.65001223 20482 LEOPARD 1 67687U 98067YD 26168.89070043 .00046259 00000+0 54179-3 0 9992 2 67687 51.6315 290.5236 0006210 198.4757 161.6012 15.61042176 20310 HMU-SAT2 1 67688U 98067YE 26168.60948560 .00057682 00000+0 61556-3 0 9999 2 67688 51.6297 290.8881 0005760 204.4350 155.6373 15.63349670 20285 CREW DRAGON 12 1 67796U 26031A 26169.15704105 .00009674 00000+0 18166-3 0 9994 2 67796 51.6334 295.2921 0004743 200.3344 159.7456 15.49293017571677 PROGRESS-MS 33 1 68319U 26058A 26169.15704105 .00009674 00000+0 18166-3 0 9995 2 68319 51.6334 295.2921 0004743 200.3344 159.7456 15.49293017571297 CYGNUS NG-24 1 68689U 26079A 26169.15704105 .00009674 00000+0 18166-3 0 9998 2 68689 51.6334 295.2921 0004743 200.3344 159.7456 15.49293017571826 PROGRESS-MS 34 1 68837U 26093A 26169.15704105 .00009674 00000+0 18166-3 0 9999 2 68837 51.6334 295.2921 0004743 200.3344 159.7456 15.49293017571876 TIANZHOU-10 1 69049U 26102A 26169.19275359 .00019911 00000+0 23482-3 0 9996 2 69049 41.4698 315.8819 0007397 85.5010 274.6674 15.60850984 6000 DRAGON CRS-34 1 69103U 26107A 26167.47994787 .00006936 00000+0 13276-3 0 9997 2 69103 51.6336 303.5935 0004796 192.9278 167.1588 15.49257994571674 SHENZHOU-23 (SZ-23) 1 69180U 26113A 26169.19275359 .00019911 00000+0 23482-3 0 9994 2 69180 41.4698 315.8819 0007397 85.5010 274.6674 15.60850984293644